DW1105 Weather Reports


Display with metric or nautical units.
time (UTC)temp
F
wind
direction
speed
MPH
gust
MPH
rain 1hr
in
rain 24hr
in
rain mn
in
humidity
%
barometer
mb
20260831082323 69 332 2.0 4.0 0.00 0.01 0.00 82 1018.9
20260831081820 69 316 1.0 3.0 0.00 0.01 0.00 81 1019.0
20260831081315 69 329 0.0 2.0 0.00 0.01 0.00 81 1019.0
20260831080812 69 329 0.0 2.0 0.00 0.01 0.00 81 1019.0
20260831080329 69 338 1.0 2.0 0.00 0.01 0.00 82 1019.0
20260831075823 69 317 0.0 3.0 0.00 0.01 0.00 81 1018.9
20260831075323 69 317 1.0 3.0 0.00 0.01 0.00 81 1018.8
20260831074820 69 279 0.0 2.0 0.00 0.01 0.00 81 1018.9
20260831074315 69 319 0.0 2.0 0.00 0.01 0.00 81 1018.9
20260831073812 69 344 0.0 3.0 0.00 0.01 0.00 81 1018.9
20260831073328 69 317 0.0 4.0 0.00 0.01 0.00 81 1018.8
20260831072823 69 311 1.0 4.0 0.00 0.01 0.00 81 1018.9
20260831072320 69 332 0.0 4.0 0.00 0.01 0.00 80 1018.8
20260831071820 69 350 1.0 4.0 0.00 0.01 0.00 80 1018.9
20260831071315 70 309 2.0 4.0 0.00 0.01 0.00 81 1018.9
20260831070812 70 336 1.0 5.0 0.00 0.01 0.00 80 1018.9
20260831070328 70 351 1.0 5.0 0.00 0.01 0.00 81 1018.9
20260831065824 70 342 1.0 3.0 0.00 0.01 0.00 80 1019.0
20260831065320 70 305 2.0 5.0 0.00 0.01 0.00 80 1019.0
20260831064817 70 329 2.0 5.0 0.00 0.01 0.00 80 1019.0
20260831064316 70 355 1.0 4.0 0.00 0.01 0.00 80 1019.0
20260831063812 70 333 1.0 4.0 0.00 0.01 0.00 80 1019.1
20260831063329 70 329 0.0 3.0 0.00 0.01 0.00 81 1019.0
20260831062823 70 331 1.0 4.0 0.00 0.01 0.00 80 1019.1
20260831062319 70 320 1.0 4.0 0.00 0.01 0.00 79 1019.1
20260831061815 70 267 0.0 3.0 0.00 0.01 0.00 79 1019.1
20260831061311 70 260 1.0 3.0 0.00 0.01 0.00 80 1019.1
20260831060811 70 319 1.0 4.0 0.00 0.01 0.00 80 1019.0
20260831060327 70 335 2.0 4.0 0.00 0.01 0.00 80 1019.1
20260831055824 70 290 1.0 4.0 0.00 0.01 0.00 80 1019.0
20260831055321 70 329 1.0 3.0 0.00 0.01 0.00 80 1019.1
20260831054816 70 306 1.0 4.0 0.00 0.01 0.00 80 1019.1
20260831054312 70 342 3.0 4.0 0.00 0.01 0.00 80 1019.0
20260831053829 70 248 2.0 4.0 0.00 0.01 0.00 80 1019.1
20260831053329 70 329 1.0 4.0 0.00 0.01 0.00 80 1019.0
20260831052825 70 279 2.0 4.0 0.00 0.01 0.00 80 1019.1
20260831052321 70 285 1.0 4.0 0.00 0.01 0.00 81 1019.4
20260831051816 70 318 1.0 3.0 0.00 0.01 0.00 81 1019.3
20260831051311 70 355 0.0 3.0 0.00 0.01 0.00 81 1019.1
20260831050828 70 272 1.0 4.0 0.00 0.01 0.00 81 1019.0
20260831050324 70 333 2.0 4.0 0.00 0.01 0.00 81 1019.0
20260831045824 70 214 1.0 4.0 0.00 0.01 0.00 82 1019.0
20260831045320 70 323 1.0 4.0 0.00 0.01 0.00 82 1019.1
20260831044815 70 324 2.0 4.0 0.00 0.01 0.00 82 1019.2
20260831044312 70 258 2.0 5.0 0.00 0.01 0.00 82 1019.1
20260831043828 70 319 2.0 5.0 0.00 0.01 0.00 82 1019.0
20260831043323 71 313 1.0 4.0 0.00 0.01 0.00 82 1019.1
20260831042818 71 310 2.0 4.0 0.00 0.01 0.00 82 1019.0
20260831042319 71 355 1.0 4.0 0.00 0.01 0.00 82 1019.0
20260831041815 71 280 1.0 3.0 0.00 0.01 0.00 83 1018.9
20260831041330 71 341 0.0 2.0 0.00 0.01 0.00 83 1018.9
20260831040826 71 295 0.0 2.0 0.00 0.01 0.00 83 1018.9
20260831040323 71 294 0.0 2.0 0.00 0.01 0.00 84 1019.0
20260831035818 71 288 0.0 2.0 0.00 0.01 0.01 83 1018.9
20260831035314 71 290 0.0 2.0 0.00 0.01 0.01 83 1018.9
20260831034814 71 296 0.0 4.0 0.00 0.01 0.01 83 1018.9
20260831034330 71 348 1.0 4.0 0.00 0.01 0.01 84 1019.0
20260831033827 72 333 1.0 4.0 0.00 0.01 0.01 84 1019.0
20260831033323 72 302 1.0 4.0 0.00 0.01 0.01 84 1018.9
20260831032818 71 355 1.0 4.0 0.00 0.01 0.01 86 1018.9
20260831032314 72 327 1.0 4.0 0.00 0.01 0.01 86 1018.9
20260831031810 72 350 2.0 4.0 0.00 0.01 0.01 87 1018.9
20260831031325 72 324 2.0 4.0 0.00 0.01 0.01 87 1018.9
20260831030826 72 325 2.0 4.0 0.00 0.01 0.01 88 1018.9
20260831030323 72 325 0.0 2.0 0.00 0.01 0.01 88 1018.9
20260831025817 72 309 1.0 2.0 0.00 0.01 0.01 89 1019.0
20260831025314 72 342 0.0 2.0 0.00 0.01 0.01 89 1019.0
20260831024810 72 342 1.0 3.0 0.00 0.01 0.01 89 1019.0
20260831024325 72 350 0.0 3.0 0.00 0.01 0.01 89 1019.1
20260831023822 72 340 0.0 0.0 0.00 0.01 0.01 88 1019.0
20260831023322 72 340 0.0 0.0 0.00 0.01 0.01 88 1019.1
20260831022817 72 340 0.0 1.0 0.00 0.01 0.01 88 1019.1
20260831022314 73 340 0.0 1.0 0.00 0.01 0.01 88 1019.1
20260831021810 73 340 0.0 4.0 0.01 0.01 0.01 88 1019.1
20260831021325 72 5 2.0 4.0 0.01 0.01 0.01 89 1019.2
20260831020822 72 250 0.0 0.0 0.01 0.01 0.01 90 1019.3
20260831020318 72 242 0.0 0.0 0.01 0.01 0.01 91 1019.3
20260831015818 72 220 0.0 0.0 0.01 0.01 0.01 92 1019.5
20260831015314 72 220 0.0 0.0 0.01 0.01 0.01 92 1019.4
20260831014810 72 220 0.0 0.0 0.01 0.01 0.01 92 1019.4
20260831014326 72 220 0.0 0.0 0.01 0.01 0.01 92 1019.5
20260831013823 72 220 0.0 0.0 0.01 0.01 0.01 92 1019.4
20260831013319 72 220 0.0 0.0 0.01 0.01 0.01 92 1019.4
20260831012815 72 220 0.0 0.0 0.01 0.01 0.01 92 1019.4
20260831012315 72 220 0.0 0.0 0.01 0.01 0.01 92 1019.4
20260831011811 72 220 0.0 0.0 0.00 0.00 0.00 92 1019.3
20260831011323 72 220 0.0 0.0 0.00 0.00 0.00 91 1019.3
20260831010818 72 220 0.0 0.0 0.00 0.00 0.00 91 1019.0
20260831010315 72 220 0.0 0.0 0.00 0.00 0.00 91 1019.0
20260831005829 72 220 0.0 0.0 0.00 0.00 0.00 91 1019.0
20260831005325 73 220 0.0 0.0 0.00 0.00 0.00 91 1018.8
20260831004826 73 220 0.0 0.0 0.00 0.00 0.00 91 1018.8
20260831004320 73 220 0.0 0.0 0.00 0.00 0.00 90 1018.7
20260831003817 73 220 0.0 0.0 0.00 0.00 0.00 90 1018.7
20260831003314 73 220 0.0 0.0 0.00 0.00 0.00 89 1018.6
20260831002829 73 220 0.0 0.0 0.00 0.00 0.00 89 1018.6
20260831002326 73 220 0.0 0.0 0.00 0.00 0.00 89 1018.5
20260831001822 74 220 0.0 0.0 0.00 0.00 0.00 88 1018.4
20260831001322 74 221 0.0 0.0 0.00 0.00 0.00 88 1018.4
20260831000819 74 221 0.0 0.0 0.00 0.00 0.00 87 1018.4
20260831000318 74 221 0.0 0.0 0.00 0.00 0.00 87 1018.4
20260830235811 74 221 0.0 0.0 0.00 0.00 0.00 86 1018.3
20260830235348 74 221 0.0 0.0 0.00 0.00 0.00 85 1018.2
20260830234823 75 221 0.0 0.0 0.00 0.00 0.00 85 1018.2
20260830234318 75 221 0.0 0.0 0.00 0.00 0.00 84 1018.1
20260830233814 75 221 0.0 0.0 0.00 0.00 0.00 83 1018.0
20260830233314 75 221 0.0 0.0 0.00 0.00 0.00 83 1018.0
20260830232830 75 221 0.0 0.0 0.00 0.00 0.00 83 1018.1
20260830232326 75 221 0.0 0.0 0.00 0.00 0.00 82 1018.1
20260830231822 75 221 0.0 1.0 0.00 0.00 0.00 82 1018.0
20260830231317 76 221 0.0 1.0 0.00 0.00 0.00 82 1018.0
20260830230813 76 240 0.0 2.0 0.00 0.00 0.00 82 1018.1
20260830230310 76 167 0.0 2.0 0.00 0.00 0.00 82 1018.1
20260830225830 76 102 0.0 2.0 0.00 0.00 0.00 81 1018.2
20260830225327 76 207 0.0 1.0 0.00 0.00 0.00 81 1018.2
20260830224823 76 281 0.0 0.0 0.00 0.00 0.00 81 1018.2
20260830224318 76 19 0.0 0.0 0.00 0.00 0.00 81 1018.3
20260830223814 76 283 0.0 1.0 0.00 0.00 0.00 81 1018.2
20260830223311 76 270 0.0 0.0 0.00 0.00 0.00 81 1018.2
20260830222826 76 215 0.0 0.0 0.00 0.00 0.00 81 1018.2
20260830222327 77 215 0.0 1.0 0.00 0.00 0.00 80 1018.1
20260830221823 77 207 0.0 1.0 0.00 0.00 0.00 81 1018.2
20260830221320 77 220 0.0 1.0 0.00 0.00 0.00 80 1018.2
20260830220836 77 230 0.0 0.0 0.00 0.00 0.00 80 1018.2
20260830220311 77 230 0.0 0.0 0.00 0.00 0.00 80 1018.2
20260830215826 77 230 0.0 0.0 0.00 0.00 0.00 80 1018.2
20260830215344 77 246 0.0 2.0 0.00 0.00 0.00 80 1018.1
20260830214819 77 245 0.0 3.0 0.00 0.00 0.00 80 1018.1
20260830214318 77 159 0.0 4.0 0.00 0.00 0.00 80 1018.3
20260830213814 77 295 1.0 4.0 0.00 0.00 0.00 79 1018.3
20260830213311 77 30 0.0 3.0 0.00 0.00 0.00 79 1018.2
20260830212826 77 360 0.0 3.0 0.00 0.00 0.00 79 1018.2
20260830212322 77 307 1.0 3.0 0.00 0.00 0.00 79 1018.1
20260830211818 77 235 0.0 3.0 0.00 0.00 0.00 79 1018.0
20260830211314 77 125 1.0 3.0 0.00 0.00 0.00 79 1017.8
20260830210850 77 319 1.0 3.0 0.00 0.00 0.00 78 1018.0
20260830210329 78 303 1.0 4.0 0.00 0.00 0.00 78 1018.0
20260830205845 78 346 2.0 4.0 0.00 0.00 0.00 78 1018.0
20260830205320 78 284 0.0 6.0 0.00 0.00 0.00 78 1018.0
20260830204816 78 26 0.0 9.0 0.00 0.00 0.00 77 1018.1
20260830204332 78 297 2.0 9.0 0.00 0.00 0.00 78 1018.0
20260830203828 78 299 2.0 5.0 0.00 0.00 0.00 77 1018.3
20260830203324 78 80 1.0 6.0 0.00 0.00 0.00 77 1018.4
20260830202820 78 90 1.0 6.0 0.00 0.00 0.00 77 1018.3
20260830202321 78 49 1.0 9.0 0.00 0.00 0.00 78 1018.3
20260830201837 78 9 3.0 8.0 0.00 0.00 0.00 78 1018.5
20260830201311 78 355 1.0 4.0 0.00 0.00 0.00 78 1018.3
20260830200827 78 277 2.0 4.0 0.00 0.00 0.00 80 1018.5
20260830200324 77 355 1.0 8.0 0.00 0.00 0.00 80 1018.4
20260830195820 77 39 2.0 8.0 0.00 0.00 0.00 80 1018.6
20260830195316 77 76 1.0 6.0 0.00 0.00 0.00 80 1018.5
20260830194812 77 297 2.0 6.0 0.00 0.00 0.00 80 1018.6
20260830194311 76 333 2.0 6.0 0.00 0.00 0.00 80 1018.6
20260830193848 76 39 2.0 7.0 0.00 0.00 0.00 80 1018.8
20260830193323 77 250 1.0 7.0 0.00 0.00 0.00 80 1018.8
20260830192818 76 314 3.0 6.0 0.00 0.00 0.00 80 1018.9
20260830192314 77 319 2.0 5.0 0.00 0.00 0.00 80 1018.8
20260830191810 76 321 3.0 5.0 0.00 0.00 0.00 80 1018.9
20260830191326 77 315 1.0 9.0 0.00 0.00 0.00 80 1019.0
20260830190822 76 360 3.0 9.0 0.00 0.00 0.00 80 1019.2
20260830190322 76 35 2.0 8.0 0.00 0.00 0.00 80 1019.2
20260830185818 76 248 3.0 10.0 0.00 0.00 0.00 80 1019.4
20260830185314 76 348 4.0 10.0 0.00 0.00 0.00 79 1019.3
20260830184830 77 59 1.0 7.0 0.00 0.00 0.00 79 1019.4
20260830184326 76 232 1.0 8.0 0.00 0.00 0.00 80 1019.5
20260830183822 76 360 2.0 6.0 0.00 0.00 0.00 80 1019.7
20260830183319 76 11 1.0 6.0 0.00 0.00 0.00 80 1019.6
20260830182817 76 132 1.0 4.0 0.00 0.00 0.00 81 1019.6
20260830182314 75 253 1.0 7.0 0.00 0.00 0.00 81 1019.7
20260830181811 75 191 3.0 7.0 0.00 0.00 0.00 81 1019.7
20260830181326 74 304 1.0 6.0 0.00 0.00 0.00 82 1019.9
20260830180823 74 173 1.0 6.0 0.00 0.00 0.00 82 1020.0
20260830180319 74 40 3.0 8.0 0.00 0.00 0.00 81 1020.0
20260830175815 74 355 2.0 5.0 0.00 0.00 0.00 81 1020.2
20260830175315 74 9 1.0 7.0 0.00 0.00 0.00 81 1020.2
20260830174852 75 283 2.0 7.0 0.00 0.00 0.00 81 1020.3
20260830174325 75 139 2.0 4.0 0.00 0.00 0.00 80 1020.2
20260830173841 75 17 1.0 9.0 0.00 0.00 0.00 80 1020.3
20260830173317 75 284 1.0 9.0 0.00 0.00 0.00 80 1020.3
20260830172813 75 64 1.0 8.0 0.00 0.00 0.00 80 1020.3
20260830172330 75 355 2.0 8.0 0.00 0.00 0.00 79 1020.4
20260830171826 75 20 2.0 6.0 0.00 0.00 0.00 80 1020.4
20260830171325 74 317 1.0 4.0 0.00 0.00 0.00 80 1020.4
20260830170841 74 32 1.0 4.0 0.00 0.00 0.00 79 1020.4
20260830170316 74 194 1.0 7.0 0.00 0.00 0.00 79 1020.4
20260830165810 74 307 1.0 9.0 0.00 0.00 0.00 80 1020.4
20260830165327 74 319 0.0 2.0 0.00 0.00 0.00 80 1020.4
20260830164844 74 182 0.0 4.0 0.00 0.00 0.00 80 1020.4
20260830164318 73 244 1.0 4.0 0.00 0.00 0.00 80 1020.5
20260830163815 73 287 1.0 4.0 0.00 0.00 0.00 82 1020.5
20260830163316 72 327 2.0 4.0 0.00 0.00 0.00 82 1020.4
20260830162811 72 70 1.0 5.0 0.00 0.00 0.00 81 1020.5
20260830162328 72 5 1.0 5.0 0.00 0.00 0.00 81 1020.4
20260830161824 71 210 1.0 4.0 0.00 0.00 0.00 82 1020.5
20260830161339 71 190 1.0 3.0 0.00 0.00 0.00 83 1020.8
20260830160815 70 111 1.0 3.0 0.00 0.00 0.00 83 1021.0
20260830160311 70 88 1.0 3.0 0.00 0.00 0.00 82 1021.0
20260830155826 70 253 0.0 2.0 0.00 0.00 0.00 82 1021.3
20260830155326 71 208 0.0 2.0 0.00 0.00 0.00 80 1021.4
20260830154822 72 78 0.0 4.0 0.00 0.00 0.00 79 1021.3
20260830154317 72 338 1.0 6.0 0.00 0.00 0.00 77 1021.4
20260830153813 72 163 1.0 6.0 0.00 0.00 0.00 76 1021.3
20260830153330 72 157 0.0 6.0 0.00 0.00 0.00 75 1021.3
20260830152824 73 165 1.0 4.0 0.00 0.00 0.00 75 1021.4
20260830152321 73 286 1.0 3.0 0.00 0.00 0.00 74 1021.3
20260830151822 73 237 1.0 3.0 0.00 0.00 0.00 72 1021.4
20260830151316 73 123 1.0 2.0 0.00 0.00 0.00 73 1021.3
20260830150813 73 119 1.0 3.0 0.00 0.00 0.00 73 1021.4
20260830150330 73 311 1.0 3.0 0.00 0.00 0.00 73 1021.6
20260830145847 73 145 0.0 2.0 0.00 0.00 0.00 73 1021.7
20260830145322 72 242 0.0 2.0 0.00 0.00 0.00 73 1021.6
20260830144819 72 261 0.0 2.0 0.00 0.00 0.00 73 1021.8
20260830144314 71 104 0.0 2.0 0.00 0.00 0.00 73 1021.8
20260830143834 71 105 0.0 0.0 0.00 0.00 0.00 73 1021.8
20260830143330 72 105 0.0 3.0 0.00 0.00 0.00 72 1021.8
20260830142825 72 146 1.0 3.0 0.00 0.00 0.00 70 1021.8
20260830142323 72 142 1.0 3.0 0.00 0.00 0.00 70 1021.8
20260830141819 73 117 0.0 7.0 0.00 0.00 0.00 68 1021.8
20260830141334 74 164 2.0 7.0 0.00 0.00 0.00 66 1021.7
20260830140830 74 134 1.0 4.0 0.00 0.00 0.00 67 1021.6
20260830140326 73 181 0.0 3.0 0.00 0.00 0.00 69 1021.8
20260830135826 73 130 1.0 3.0 0.00 0.00 0.00 68 1021.7
20260830135343 72 78 1.0 3.0 0.00 0.00 0.00 69 1021.9
20260830134837 72 146 0.0 1.0 0.00 0.00 0.00 68 1021.8
20260830134312 72 120 0.0 2.0 0.00 0.00 0.00 68 1021.8
20260830133828 72 120 0.0 2.0 0.00 0.00 0.00 68 1021.9
20260830133325 72 82 0.0 2.0 0.00 0.00 0.00 67 1021.8
20260830132820 72 169 1.0 2.0 0.00 0.00 0.00 68 1021.8
20260830132316 71 165 0.0 1.0 0.00 0.00 0.00 70 1021.9
20260830131817 71 158 0.0 0.0 0.00 0.00 0.00 71 1022.0
20260830131313 71 165 0.0 0.0 0.00 0.00 0.00 72 1022.0
20260830130829 71 355 0.0 0.0 0.00 0.00 0.00 74 1022.0
20260830130325 70 355 0.0 0.0 0.00 0.00 0.00 74 1022.2
20260830125841 70 355 0.0 0.0 0.00 0.00 0.00 75 1022.4
20260830125315 69 355 0.0 0.0 0.00 0.00 0.00 76 1022.4
20260830124832 69 355 0.0 0.0 0.00 0.00 0.00 76 1022.4
20260830124325 68 355 0.0 0.0 0.00 0.00 0.00 77 1022.5
20260830123822 68 355 0.0 0.0 0.00 0.00 0.00 78 1022.6
20260830123342 67 355 0.0 0.0 0.00 0.00 0.00 80 1022.5
20260830122836 66 355 0.0 0.0 0.00 0.00 0.00 81 1022.5
20260830122311 66 355 0.0 0.0 0.00 0.00 0.00 83 1022.5
20260830121827 65 355 0.0 1.0 0.00 0.00 0.00 83 1022.5
20260830121321 64 355 0.0 1.0 0.00 0.00 0.00 85 1022.7
20260830120837 63 355 0.0 2.0 0.00 0.00 0.00 87 1022.6
20260830120312 63 355 1.0 2.0 0.00 0.00 0.00 87 1022.6
20260830115829 62 346 1.0 2.0 0.00 0.00 0.00 87 1022.6
20260830115326 62 343 1.0 2.0 0.00 0.00 0.00 87 1022.6
20260830114846 61 344 0.0 3.0 0.00 0.00 0.00 88 1022.5
20260830114322 61 344 1.0 3.0 0.00 0.00 0.00 88 1022.6
20260830113319 62 348 1.0 3.0 0.00 0.00 0.00 89 1022.6
20260830112815 61 346 1.0 3.0 0.00 0.00 0.00 89 1022.6
20260830112311 61 317 0.0 0.0 0.00 0.00 0.00 89 1022.6
20260830111827 60 317 0.0 0.0 0.00 0.00 0.00 90 1022.6
20260830111328 60 317 0.0 0.0 0.00 0.00 0.00 90 1022.6
20260830110825 60 317 0.0 0.0 0.00 0.00 0.00 90 1022.6
20260830110322 60 317 0.0 0.0 0.00 0.00 0.00 90 1022.6
20260830105816 60 317 0.0 0.0 0.00 0.00 0.00 90 1022.6
20260830105313 60 317 0.0 0.0 0.00 0.00 0.00 90 1022.5
20260830104830 60 317 0.0 0.0 0.00 0.00 0.00 90 1022.5
20260830104325 60 317 0.0 0.0 0.00 0.00 0.00 89 1022.5
20260830103825 60 317 0.0 0.0 0.00 0.00 0.00 90 1022.2
20260830103322 60 317 0.0 0.0 0.00 0.00 0.00 90 1022.2
20260830102816 60 317 0.0 0.0 0.00 0.00 0.00 90 1022.2
20260830102313 60 317 0.0 0.0 0.00 0.00 0.00 90 1022.3
20260830101829 60 317 0.0 0.0 0.00 0.00 0.00 90 1022.5
20260830101323 60 317 0.0 0.0 0.00 0.00 0.00 89 1022.5
20260830100820 60 317 0.0 0.0 0.00 0.00 0.00 90 1022.4
20260830100320 60 317 0.0 0.0 0.00 0.00 0.00 90 1022.3
20260830095816 60 317 0.0 0.0 0.00 0.00 0.00 90 1022.4
20260830095312 60 317 0.0 0.0 0.00 0.00 0.00 90 1022.5
20260830094829 60 317 0.0 0.0 0.00 0.00 0.00 90 1022.4
20260830094325 60 317 0.0 0.0 0.00 0.00 0.00 90 1022.4
20260830093821 60 317 0.0 0.0 0.00 0.00 0.00 90 1022.4
20260830093318 60 317 0.0 0.0 0.00 0.00 0.00 90 1022.5
20260830092817 60 317 0.0 0.0 0.00 0.00 0.00 90 1022.5
20260830092314 60 317 0.0 0.0 0.00 0.00 0.00 90 1022.4
20260830091810 60 317 0.0 0.0 0.00 0.00 0.00 90 1022.4
20260830091325 60 317 0.0 0.0 0.00 0.00 0.00 90 1022.3
20260830090822 60 317 0.0 1.0 0.00 0.00 0.00 90 1022.4
20260830090319 60 317 0.0 1.0 0.00 0.00 0.00 90 1022.5
20260830085813 60 317 0.0 0.0 0.00 0.00 0.00 90 1022.5
20260830085313 60 317 0.0 0.0 0.00 0.00 0.00 90 1022.4
20260830084810 59 317 0.0 0.0 0.00 0.00 0.00 90 1022.5
20260830084326 59 317 0.0 0.0 0.00 0.00 0.00 90 1022.4
20260830083822 59 317 0.0 0.0 0.00 0.00 0.00 90 1022.4
20260830083319 60 317 0.0 0.0 0.00 0.00 0.00 90 1022.6
20260830082814 60 317 0.0 0.0 0.00 0.00 0.00 90 1022.5